Regional Weather Roundup
Issued by NWS State College, PA

Home | Current Version | Previous Version | Text Only | Print | Product List | Glossary Off
Versions: 1 2 3 4 5 6 7 8 9 10 11 12 13 14 15 16 17 18 19 20 21 22 23 24 25 26 27 28 29 30 31 32 33 34 35 36 37 38 39 40 41 42 43 44 45 46 47 48 49 50

000
ASUS41 KCTP 241103
RWRCTP

REGIONAL WEATHER ROUNDUP
NATIONAL WEATHER SERVICE STATE COLLEGE PA
700 AM EDT FRI OCT 24 2014

Note: "fair" indicates few or no clouds below 12,000 feet with no
significant weather and/or obstructions to visibility.

* = STATION THAT DOES NOT REPORT PRECIPITATION /E.G. RAIN...SNOW...ETC/
    THUNDER OR FOG.

PAZ002>004-007>009-013>016-020>023-029>032-241200-
WESTERN PENNSYLVANIA

CITY           SKY/WX    TMP DP  RH WIND       PRES   REMARKS
ERIE           PTCLDY    39  36  89 CALM      30.08R
MEADVILLE      CLEAR     43  39  86 CALM      30.06F
FRANKLIN*      CLOUDY    41  37  87 CALM      30.08S VSB 1/4
NEW CASTLE       N/A     35  35 100 CALM      30.10S FOG
BEAVER COUNTY  CLEAR     39  37  93 W6        30.09
BUTLER*        CLOUDY    39  37  93 CALM      30.11R
PITTSBURGH INT MOCLDY    40  37  89 CALM      30.09R
PITTSBURGH     PTCLDY    41  36  82 CALM      30.09R
INDIANA*       CLOUDY    46  43  87 W6        30.11S
LATROBE        PTCLDY   N/A N/A N/A SW6       30.12R
WASHINGTON CO* MOCLDY    36  34  93 CALM      30.12R
$$

PAZ004>006-010>012-017>019-024>028-033>037-041-042-045-046-049>053-241200-
CENTRAL PENNSYLVANIA

CITY           SKY/WX    TMP DP  RH WIND       PRES   REMARKS
BRADFORD       CLOUDY    42  39  89 NW12      30.03R
DUBOIS         CLOUDY    45  41  86 NW5       30.04S
CLEARFIELD     MOCLDY    45  40  82 NW13G22   30.03R
JOHNSTOWN      CLOUDY    42  40  92 NW6       30.05R FOG
ALTOONA        CLOUDY    48  41  76 NW9       30.03S
STATE COLLEGE  CLEAR     45  37  76 W6        30.01R
WILLIAMSPORT   PTCLDY    54  41  61 W10       29.93S
SELINSGROVE    MOCLDY    54  43  66 VRB5      29.94S
FT INDIANTOWN  MOCLDY    56  46  68 VRB7      29.91S
CAPITAL CITY   PTCLDY    56  43  61 NW14G20   29.93S
HARRISBURG     MOCLDY    55  43  63 NW15      29.92R
YORK           CLEAR     54  43  66 W10       29.94R
$$

PAZ038>040-043-044-047-048-054-055-060>062-067>071-241200-
EASTERN PENNSYLVANIA

CITY           SKY/WX    TMP DP  RH WIND       PRES   REMARKS
SCRANTON       CLOUDY    51  41  68 N9        29.89S
MOUNT POCONO   CLOUDY    46  41  82 NW21G37   29.83R
ALLENTOWN      CLOUDY    55  42  61 N17G24    29.85R
QUAKERTOWN*    CLOUDY    54  45  71 NW5       29.85S
READING        CLOUDY    56  45  66 NW17G25   29.87F
LANCASTER      CLOUDY    56  43  61 NW14      29.90R
COATESVILLE    CLOUDY    54  46  76 NW15G21   29.88R
POTTSTOWN      CLOUDY    54  44  69 NW8       29.87R
BLUE BELL      CLOUDY    55  45  67 NW6       29.84R
DOYLESTOWN     CLOUDY    53  44  71 NW8       29.83S
WILLOW GROVE   NOT AVBL
NORTH PHILA    MOCLDY    55  43  63 NW6       29.85S
PHILADELPHIA   MOCLDY    57  44  62 NW15      29.86R
$$



USA.gov is the U.S. government's official web portal to all federal, state and local government web resources and services.